2001 JW2  

Epoch 2001 May  11.0 TT = JDT 2452040.5                 Nakano

M 313.64018              (2000.0)            P               Q

n   0.44509460     Peri.   87.47177     +0.89396982     +0.42079855

a   1.6989001      Node   247.60718     -0.44794636     +0.82934585

e   0.4885867      Incl.    9.59408     -0.01272857     +0.36757862

P   2.21           H   19.1           G   0.15           U   *

Residuals in seconds of arc 

010504 644  0.0   0.1+    010516 926  0.5+  0.1-    010517 649  0.0   0.1-  

010504 644  0.2+  0.3-    010516 926  0.8+  0.1+    010517 649  0.1+  0.1-  

010504 644  0.1-  0.2+    010516 046  0.2-  0.2-    010519 360  0.2+  0.5+  

010515 644  0.6-  0.3+    010516 046  0.1-  0.4-    010519 360  0.3+  0.0   

010515 644  0.3-  0.5+    010516 046  0.0   0.4-    010519 360  0.1+  0.1-  

010515 644  0.1-  0.3+    010517 649  0.1-  0.0     010519 046  0.0   0.4-  

010516 649  0.0   0.4-    010517 926  0.2-  0.4-    010519 046  0.0   0.1-  

010516 649  0.5-  0.0     010517 649  0.1+  0.1-    010519 046  0.2+  0.3+  

010516 649  0.2-  0.5+    010517 926  0.1+  0.3+    010519 046  0.8-  0.4+  

010516 926  0.4+  0.5-    010517 926  0.2+  0.2+                            

  

NAKANO

         **** Don't distribute anyone except personal use only ****

                (C) Copyright 2001 OAA/ComputingSection

write mail from CFAD0::NAKANO on 2001-05-21 05:15:23(JST).

 



–ß‚è‚Ü‚·B